Showing default

FLOCK 4BE 25, 60487

Orbit data source: Space-Track

FLOCK 4BE 25, 60487 is a payload satellite owned by Planet (US) in SSO that was launched on Fri, 16 Aug 2024 UTC via an FALCON 9 launch vehicle from the Air Force Western Test Range (AFWTR). Payload-class satellites include a variety of spacecraft equipped with specific instruments for various scientific and technological missions. These include communications satellites like Starlink; space stations such as the ISS; scientific satellites like the Hubble; Earth observation satellites from companies like Planet Labs, Umbra, and HawkEye 360; GPS; miniature CubeSats for education and research; and military/defense satellites.

Loading next visibility...
Identifier
60487, 2024-149V
Orbit
SSO
Country
Flag of USUS
Related business
Manufacturer
Planet
Mission
Operational Commercial Imaging
Bus & Motor
CUBESAT 3U, Unknown motor
Mass
5.7 kg wet, 5.7 kg dry
Launch date (UTC)
2024-08-16 (2 years ago)
Launch vehicle
FALCON 9
Launch site
Air Force Western Test Range (AFWTR)
Object type
Payload
Rocket body
Debris
Shape & HBR
Box + 2 Pan, 1.0 m
Radar Cross Section
0.072 m², Medium (>0.1 m² and < 1m²)

Expand to show TLE details & history
Last TLE update: 2 days ago

TLE from 2 days ago
0 FLOCK 4BE 25
1 60487U 24149V   26235.67893489  .00012918  00000-0  32099-3 0  9994
2 60487  97.3771 319.3544 0002799  53.8300 306.3205 15.40444562112622
Epoch: 2026-08-23T16:17Z
TLE epoch observation values (Epoch: 2026-08-23T16:17:39.974Z)
Latitude
-0.00001°
Longitude
102.96631°
Altitude
446.784 km
Speed
7.645 km/s
True Right ascension
21h 17m 25s
True Declination
0° 00' 00"
Sunlit
Object was in full shadow at epoch
Visualization orbit readout
Latitude
Unknown
Longitude
Unknown
Altitude
Unknown
Speed
Unknown
Apparent Right ascension
Unknown
Apparent Declination
Unknown
Sunlit
N/A
Visualization observer readout
Local Sidereal Time
00:23:15
Azimuth
Unknown
Elevation
Unknown
Doppler factor
Unknown
Orbital elements
Apogee altitude
443.643 km
Perigee altitude
439.825 km
Semi-major axis
6,819.871 km
Eccentricity
0.00028
Inclination
97.3771°
RAAN
319.3544°
Arg. of periapsis
53.83°
True anomaly
306.29465°
Mean anomaly
306.3205°
Eccentric anomaly
306.30758°
Mean motion
3.85371 °/min
Orbital period
93.42 mins
BSTAR
0.00032099
Loading maneuver chart data...
Computing Atmospheric mass density...
Loading historical data...
Loading historical data...
Loading historical data...
Loading historical data...
Loading historical data...
Loading historical data...
Loading historical data...

Documentation

Showing up to 5 results
|